Regional Weather Roundup
Issued by NWS Lake Charles, LA

Home | Current Version | Previous Version | Text Only | Print | Product List | Glossary On
Versions: 1 2 3 4 5 6 7 8 9 10 11 12 13 14 15 16 17 18 19 20 21 22 23 24 25 26 27 28 29 30 31 32 33 34 35 36 37 38 39 40 41 42 43 44 45 46 47 48 49 50
356
ASUS44 KLCH 262210
RWRLCH
REGIONAL WEATHER ROUNDUP
NATIONAL WEATHER SERVICE LAKE CHARLES LA
500 PM CDT MON SEP 26 2016

Note: "fair" indicates few or no clouds below 12,000 feet with no
significant weather and/or obstructions to visibility.


ACROSS SOUTHEAST TEXAS

CITY           SKY/WX    TMP DP  RH WIND       PRES   REMARKS
BEAUMONT       LGT RAIN  77  75  93 CALM      29.96F
BEAUMONT CITY  LGT RAIN  77  74  89 N5        29.97F
ORANGE         LGT RAIN  73  73 100 CALM      29.97F
JASPER         CLOUDY    81  76  85 NW3       29.98S
$$

ACROSS CENTRAL LOUISIANA

CITY           SKY/WX    TMP DP  RH WIND       PRES   REMARKS
LEESVILLE      LGT RAIN  86  72  62 VRB5      29.94S
FULLERTON      FAIR      87  73  62 MISG      29.92S
ALEXANDRIA INT CLOUDY    83  74  74 NE8       29.94S
ESLER FIELD    PTSUNNY   82  73  74 NE3       29.97S
DERIDDER       FAIR      84  70  62 W3        29.96F
OAKDALE        CLEAR     91  68  46 CALM      29.93S
OPELOUSAS      FAIR      86  71  60 N9        29.93S
$$

ACROSS SOUTHWEST AND SOUTH CENTRAL LOUISIANA

CITY           SKY/WX    TMP DP  RH WIND       PRES   REMARKS
SULPHUR        CLOUDY    77  74  91 SW5       29.96F
LAKE CHARLES   LGT RAIN  77  74  90 NW3       29.94F
CHENNAULT INT  SHOWER    81  73  78 S8        29.95R
CAMERON PHI    CLEAR     84  75  74 CALM      29.94S
DEQUINCY       FAIR      79  71  78 S5        29.94F
JENNINGS       FAIR      87  69  55 CALM      29.93S
LAFAYETTE      MOSUNNY   90  67  46 CALM      29.93S
NEW IBERIA     MOSUNNY   89  69  51 S7        29.93F
ABBEVILLE      FAIR      88  68  52 S9        29.93F
PATTERSON      SUNNY     90  72  55 SW3       29.94F
SALT POINT     NOT AVBL
$$

SELECTED SITES ACROSS THE REGION

CITY           SKY/WX    TMP DP  RH WIND       PRES   REMARKS
HOUSTON BUSH   PTSUNNY   85  72  65 N9        29.97F
HOUSTON HOBBY  CLOUDY    79  72  79 SE7       29.96R THUNDER
GALVESTON      CLOUDY    83  75  77 NE6       29.96F
COLLEGE STAT   CLOUDY    74  70  87 N12       30.03S FOG
CONROE         PTSUNNY   82  72  71 N9        29.98F
HUNTSVILLE     PTSUNNY   79  72  79 N10       30.01F
LUFKIN         MOSUNNY   84  73  69 N9        29.99S
SHREVEPORT     CLOUDY    83  68  60 N12       30.01F
MONROE         SUNNY     82  66  58 NE13      30.01F
NATCHEZ MS     SUNNY     84  72  65 N13       29.96S
BATON ROUGE    PTSUNNY   85  70  60 NE3       29.94S
N.O. INTL ARPT MOSUNNY   94  69  44 N6        29.92F
SLIDELL        NOT AVBL
$$

MARINE REPORTS

STATION/POSITION TIME  SKY/WX   TEMP    WIND        PRES    VSBY
                                AIR SEA DIR/SP/G
                 (UTC)          (F)     (DEG/KT/KT) (MB)    (MI)
BUOY 30 S HIGH I 2150            83 87   20/  4/  6 1014.5F
WVE H/P(F/S)=  2/ 6

SEA RIM ST PARK  2200            78     320/  6/  7 1014.8F
PORT ARTHUR      2100               87  290/  4/  6 1014.9F
SABINE PASS N    2100            82 87   CALM  /  3 1016.0F
TEXAS POINT      NOT AVBL
CALCASIEU PASS   2100            83 86  210/  6/  9 1013.3F
LK CHARLES BEACH 2100            88 85              1014.3F
MARSH ISLAND     2100            87                   N/A
FRESH WATER LOCK 2100            85 87  150/  7/  9 1014.8F
AMERADA PASS     2100            88 87  260/  2/  4 1013.9F
$$




USA.gov is the U.S. government's official web portal to all federal, state and local government web resources and services.